When you browse on this site, cookies collect data to enhance your experience and personalize the content and advertising you see.
Visit our Privacy Policy to learn more. By continuing to use the site, you agree to this use of cookies and data.
  • In Lithuania
  • List of Countries
  • For 7 days
  • Water Temperature
  • Satellite Maps
  • Weather Map
  • Weather Widgets
  • user-avatar
    Login

    Hourly Weather Stefania

    Today, 19 April, Friday

    Time Temperature Precipitation Wind Pressure Humidity
    00:00 +10°C° 0 mm 3 mps 766 mmHg 69%
    01:00 +9°C° 0 mm 3 mps 766 mmHg 74%
    02:00 +9°C° 0 mm 3 mps 766 mmHg 75%
    03:00 +8°C° 0 mm 3 mps 766 mmHg 77%
    04:00 +8°C° 0 mm 2 mps 766 mmHg 78%
    05:00 +9°C° 0 mm 2 mps 766 mmHg 74%
    06:00 +10°C° 0 mm 2 mps 766 mmHg 71%
    07:00 +12°C° 0 mm 2 mps 766 mmHg 68%
    08:00 +14°C° 0 mm 2 mps 766 mmHg 62%
    09:00 +16°C° 0 mm 3 mps 766 mmHg 55%
    10:00 +18°C° 0 mm 3 mps 766 mmHg 49%
    11:00 +18°C° 0 mm 3 mps 766 mmHg 45%
    12:00 +19°C° 0 mm 3 mps 766 mmHg 41%
    13:00 +20°C° 0 mm 3 mps 766 mmHg 37%
    14:00 +20°C° 0 mm 3 mps 766 mmHg 36%
    15:00 +20°C° 0 mm 3 mps 765 mmHg 36%
    16:00 +20°C° 0 mm 3 mps 765 mmHg 35%
    17:00 +18°C° 0 mm 2 mps 765 mmHg 40%
    18:00 +16°C° 0 mm 2 mps 765 mmHg 44%
    19:00 +14°C° 0 mm 2 mps 765 mmHg 48%
    20:00 +13°C° 0 mm 2 mps 765 mmHg 52%
    21:00 +12°C° 0 mm 2 mps 765 mmHg 56%
    22:00 +10°C° 0 mm 3 mps 765 mmHg 60%
    23:00 +9°C° 0 mm 2 mps 765 mmHg 64%

    Tomorrow, 20 April, Saturday

    Time Temperature Precipitation Wind Pressure Humidity
    00:00 +9°C° 0 mm 2 mps 765 mmHg 68%
    01:00 +8°C° 0 mm 2 mps 765 mmHg 72%
    02:00 +7°C° 0 mm 2 mps 765 mmHg 73%
    03:00 +7°C° 0 mm 2 mps 765 mmHg 74%
    04:00 +6°C° 0 mm 2 mps 765 mmHg 75%
    05:00 +7°C° 0 mm 2 mps 765 mmHg 70%
    06:00 +8°C° 0 mm 2 mps 765 mmHg 64%
    07:00 +9°C° 0 mm 2 mps 765 mmHg 59%
    08:00 +10°C° 0 mm 2 mps 764 mmHg 50%
    09:00 +12°C° 0 mm 3 mps 764 mmHg 42%
    10:00 +14°C° 0 mm 3 mps 764 mmHg 33%
    11:00 +16°C° 0 mm 3 mps 764 mmHg 32%
    12:00 +17°C° 0 mm 3 mps 763 mmHg 30%
    13:00 +18°C° 0 mm 3 mps 763 mmHg 29%
    14:00 +18°C° 0 mm 3 mps 762 mmHg 32%
    15:00 +18°C° 0 mm 3 mps 762 mmHg 35%
    16:00 +18°C° 0 mm 3 mps 762 mmHg 38%
    17:00 +16°C° 0 mm 3 mps 762 mmHg 44%
    18:00 +15°C° 0 mm 2 mps 762 mmHg 51%
    19:00 +13°C° 0 mm 2 mps 762 mmHg 57%
    20:00 +11°C° 0 mm 3 mps 762 mmHg 60%
    21:00 +10°C° 0 mm 3 mps 762 mmHg 63%
    22:00 +9°C° 0 mm 3 mps 762 mmHg 66%
    23:00 +8°C° 0 mm 3 mps 762 mmHg 66%

    Day after tomorrow, 21 April, Sunday

    Time Temperature Precipitation Wind Pressure Humidity
    00:00 +7°C° 0 mm 3 mps 761 mmHg 65%
    01:00 +6°C° 0 mm 2 mps 761 mmHg 65%
    02:00 +6°C° 0 mm 2 mps 761 mmHg 65%
    03:00 +5°C° 0 mm 2 mps 761 mmHg 65%
    04:00 +5°C° 0 mm 2 mps 760 mmHg 65%
    05:00 +6°C° 0 mm 2 mps 760 mmHg 63%
    06:00 +7°C° 0 mm 2 mps 760 mmHg 61%
    07:00 +8°C° 0 mm 2 mps 760 mmHg 59%
    08:00 +10°C° 0 mm 2 mps 760 mmHg 53%
    09:00 +13°C° 0 mm 2 mps 759 mmHg 48%
    10:00 +14°C° 0 mm 3 mps 759 mmHg 43%
    11:00 +16°C° 0 mm 3 mps 759 mmHg 40%
    12:00 +17°C° 0 mm 3 mps 758 mmHg 38%
    13:00 +18°C° 0 mm 3 mps 758 mmHg 35%
    14:00 +18°C° 0 mm 3 mps 757 mmHg 36%
    15:00 +18°C° 0 mm 3 mps 757 mmHg 36%
    16:00 +18°C° 0 mm 3 mps 757 mmHg 37%
    17:00 +16°C° 0 mm 2 mps 756 mmHg 41%
    18:00 +15°C° 0 mm 1 mps 756 mmHg 45%
    19:00 +13°C° 0 mm 1 mps 756 mmHg 49%
    20:00 +13°C° 0 mm 1 mps 756 mmHg 50%
    21:00 +13°C° 0 mm 1 mps 756 mmHg 52%
    22:00 +12°C° 0 mm 2 mps 756 mmHg 54%
    23:00 +10°C° 0 mm 2 mps 756 mmHg 61%

    22 April, Monday

    Time Temperature Precipitation Wind Pressure Humidity
    00:00 +9°C° 0 mm 3 mps 756 mmHg 68%
    01:00 +8°C° 0 mm 3 mps 755 mmHg 76%
    02:00 +8°C° 0.5 mm 3 mps 755 mmHg 81%
    03:00 +7°C° 0.5 mm 3 mps 755 mmHg 87%
    04:00 +7°C° 0.5 mm 3 mps 755 mmHg 92%
    05:00 +7°C° 0.4 mm 3 mps 755 mmHg 92%
    06:00 +7°C° 0.4 mm 3 mps 755 mmHg 91%
    07:00 +7°C° 0.4 mm 3 mps 755 mmHg 90%
    08:00 +8°C° 0.4 mm 3 mps 755 mmHg 87%
    09:00 +8°C° 0.4 mm 4 mps 755 mmHg 85%
    10:00 +8°C° 0.4 mm 5 mps 755 mmHg 82%
    11:00 +9°C° 0.8 mm 5 mps 754 mmHg 80%
    12:00 +11°C° 0.8 mm 4 mps 754 mmHg 77%
    13:00 +11°C° 0.8 mm 4 mps 754 mmHg 75%
    14:00 +12°C° 0 mm 5 mps 754 mmHg 70%
    15:00 +14°C° 0 mm 5 mps 753 mmHg 64%
    16:00 +15°C° 0 mm 6 mps 753 mmHg 59%
    17:00 +14°C° 0.5 mm 5 mps 753 mmHg 65%
    18:00 +13°C° 0.5 mm 4 mps 753 mmHg 71%
    19:00 +11°C° 0.5 mm 3 mps 752 mmHg 77%
    20:00 +12°C° 0.7 mm 5 mps 752 mmHg 78%
    21:00 +11°C° 0.7 mm 6 mps 752 mmHg 78%
    22:00 +11°C° 0.7 mm 7 mps 752 mmHg 78%
    23:00 +10°C° 0 mm 7 mps 752 mmHg 78%

    23 April, Tuesday

    Time Temperature Precipitation Wind Pressure Humidity
    00:00 +10°C° 0 mm 7 mps 752 mmHg 78%
    01:00 +10°C° 0 mm 7 mps 751 mmHg 78%
    02:00 +10°C° 0 mm 7 mps 751 mmHg 78%
    03:00 +10°C° 0 mm 8 mps 751 mmHg 77%
    04:00 +10°C° 0 mm 8 mps 751 mmHg 77%
    05:00 +10°C° 0.3 mm 8 mps 751 mmHg 76%
    06:00 +10°C° 0.3 mm 8 mps 751 mmHg 75%
    07:00 +10°C° 0.3 mm 7 mps 751 mmHg 74%
    08:00 +12°C° 0.1 mm 8 mps 751 mmHg 69%
    09:00 +13°C° 0.1 mm 8 mps 751 mmHg 64%
    10:00 +15°C° 0.1 mm 9 mps 751 mmHg 58%
    11:00 +16°C° 0 mm 9 mps 751 mmHg 55%
    12:00 +17°C° 0 mm 9 mps 751 mmHg 52%
    13:00 +18°C° 0 mm 9 mps 751 mmHg 49%
    14:00 +18°C° 0 mm 9 mps 751 mmHg 51%
    15:00 +17°C° 0 mm 9 mps 751 mmHg 53%
    16:00 +17°C° 0 mm 8 mps 751 mmHg 54%
    17:00 +16°C° 0 mm 8 mps 751 mmHg 54%
    18:00 +15°C° 0 mm 8 mps 751 mmHg 54%
    19:00 +12°C° 0 mm 7 mps 751 mmHg 54%
    20:00 +12°C° 0 mm 7 mps 751 mmHg 53%
    21:00 +13°C° 0 mm 6 mps 752 mmHg 53%
    22:00 +13°C° 0 mm 6 mps 752 mmHg 53%
    23:00 +11°C° 0 mm 6 mps 752 mmHg 56%

    24 April, Wednesday

    Time Temperature Precipitation Wind Pressure Humidity
    00:00 +12°C° 0 mm 5 mps 752 mmHg 58%
    01:00 +12°C° 0 mm 5 mps 752 mmHg 61%
    02:00 +10°C° 0 mm 5 mps 752 mmHg 63%
    03:00 +10°C° 0 mm 5 mps 752 mmHg 66%
    04:00 +10°C° 0 mm 4 mps 752 mmHg 68%
    05:00 +10°C° 0 mm 5 mps 752 mmHg 67%
    06:00 +12°C° 0 mm 5 mps 753 mmHg 67%
    07:00 +13°C° 0 mm 5 mps 753 mmHg 67%
    08:00 +14°C° 0 mm 5 mps 753 mmHg 64%
    09:00 +16°C° 0 mm 5 mps 753 mmHg 60%
    10:00 +19°C° 0 mm 5 mps 753 mmHg 57%
    11:00 +20°C° 0 mm 5 mps 753 mmHg 55%
    12:00 +21°C° 0 mm 5 mps 753 mmHg 54%
    13:00 +22°C° 0 mm 5 mps 753 mmHg 52%
    14:00 +22°C° 0.1 mm 4 mps 753 mmHg 56%
    15:00 +21°C° 0.1 mm 3 mps 753 mmHg 59%
    16:00 +21°C° 0.1 mm 2 mps 753 mmHg 63%
    17:00 +20°C° 0 mm 2 mps 753 mmHg 66%
    18:00 +19°C° 0 mm 2 mps 753 mmHg 69%
    19:00 +17°C° 0 mm 2 mps 754 mmHg 73%
    20:00 +17°C° 0 mm 2 mps 754 mmHg 76%
    21:00 +16°C° 0 mm 2 mps 754 mmHg 79%
    22:00 +14°C° 0 mm 3 mps 755 mmHg 82%
    23:00 +14°C° 0 mm 2 mps 755 mmHg 84%
    Show more